Hayward, WI

4:47 AM CDT on June 24, 2017 (GMT -0500)
Sawyer County

Weather History for KHYR - September, 2012

Change the Weather History Date:

Wednesday, September 5, 2012

  Actual Average Record
Temperature  
Mean Temperature 62 °F -  
Max Temperature 75 °F 78 °F 91 °F (2005)
Min Temperature 46 °F 44 °F 33 °F (2010)
Degree Days  
Heating Degree Days 4    
Growing Degree Days 12 (Base 50)    
Moisture  
Dew Point 55 °F    
Average Humidity 80    
Maximum Humidity 97    
Minimum Humidity 40    
Precipitation  
Precipitation 0.62 in - - ()
Sea Level Pressure  
Sea Level Pressure 29.84 in    
Wind  
Wind Speed 2 mph (WNW)    
Max Wind Speed 7 mph    
Max Gust Speed 16 mph    
Visibility 7 miles    
Events Rain , Thunderstorm    
Averages and records for this station are not official NWS values.
T = Trace of Precipitation, MM = Missing Value Source: NWS Daily Summary

Daily Weather History Graph

Daily Weather History Graph

Search for Another Location

Airport or City:

Trip Planner

Search our weather history database for the weather conditions in past years. The results will help you decide how hot, cold, wet, or windy it might be!

Date:

Astronomy

Sep. 05, 2012 Rise Set
Actual Time 6:32 AM CDT 7:35 PM CDT
Civil Twilight 6:01 AM CDT 8:06 PM CDT
Nautical Twilight 5:24 AM CDT 8:42 PM CDT
Astronomical Twilight 4:45 AM CDT 9:21 PM CDT
Moon 9:44 PM CDT (9/5) 11:56 AM CDT (9/5)
Length of Visible Light 14h 04m
Length of Day
13h 03m
Waning Gibbous, 76% of the Moon is Illuminated
Sep 5
Waning Gibbous
Sep 8
Last Quarter
Sep 15
New
Sep 22
First Quarter
Sep 29
Full

Hourly Weather History & Observations

Time (CDT) Temp. Dew Point Humidity Pressure Visibility Wind Dir Wind Speed Gust Speed Precip Events Conditions
12:53 AM 61.0 °F 57.9 °F 90% 29.79 in 10.0 mi Calm Calm - N/A   Clear
1:53 AM 60.1 °F 57.0 °F 90% 29.76 in 10.0 mi WNW 3.5 mph - N/A   Clear
2:53 AM 59.0 °F 55.9 °F 90% 29.78 in 10.0 mi Calm Calm - N/A   Clear
3:53 AM 60.1 °F 57.0 °F 90% 29.79 in 10.0 mi Calm Calm - N/A   Clear
4:53 AM 57.9 °F 55.9 °F 93% 29.77 in 10.0 mi Calm Calm - N/A   Clear
5:53 AM 64.0 °F 60.1 °F 87% 29.80 in 10.0 mi Calm Calm - N/A   Partly Cloudy
6:53 AM 63.0 °F 60.1 °F 90% 29.79 in 10.0 mi Calm Calm - N/A   Scattered Clouds
7:33 AM 64.4 °F 60.8 °F 88% 29.80 in 4.0 mi WSW 4.6 mph - 0.01 in Rain , Thunderstorm Thunderstorms and Rain
7:50 AM 60.8 °F 57.2 °F 88% 29.85 in 1.0 mi Variable 4.6 mph - 0.15 in Rain , Thunderstorm Rain
7:53 AM 60.1 °F 57.0 °F 90% 29.83 in 0.8 mi North 6.9 mph - 0.21 in Rain , Thunderstorm Heavy Rain
7:59 AM 59.0 °F 55.4 °F 88% 29.84 in 1.2 mi North 4.6 mph - 0.04 in Rain , Thunderstorm Heavy Rain
8:03 AM 60.8 °F 55.4 °F 82% 29.85 in 3.0 mi Calm Calm - 0.04 in Rain , Thunderstorm Light Rain
8:11 AM 60.8 °F 55.4 °F 82% 29.88 in 1.5 mi Variable 5.8 mph - 0.11 in Rain , Thunderstorm Rain
8:13 AM 60.8 °F 55.4 °F 82% 29.87 in 0.8 mi NW 4.6 mph - 0.14 in Rain , Thunderstorm Heavy Rain
8:21 AM 60.8 °F 57.2 °F 88% 29.88 in 0.8 mi Variable 3.5 mph - 0.18 in Rain Rain
8:23 AM 60.8 °F 57.2 °F 88% 29.88 in 1.2 mi Calm Calm - 0.18 in Rain Rain
8:28 AM 60.8 °F 57.2 °F 88% 29.89 in 3.0 mi Calm Calm - 0.19 in Rain Light Rain
8:53 AM 60.1 °F 55.9 °F 86% 29.86 in 2.5 mi Variable 5.8 mph - 0.24 in Rain Heavy Rain
9:09 AM 59.0 °F 55.4 °F 88% 29.85 in 6.0 mi Variable 6.9 mph - 0.02 in Rain Light Rain
9:53 AM 57.9 °F 55.0 °F 90% 29.87 in 1.5 mi West 4.6 mph - 0.08 in Rain Heavy Rain
10:01 AM 57.2 °F 55.4 °F 94% 29.86 in 1.0 mi Calm Calm - 0.05 in Rain Heavy Rain
10:05 AM 57.2 °F 55.4 °F 94% 29.86 in 2.0 mi Calm Calm - 0.05 in Rain Rain
10:13 AM 57.2 °F 55.4 °F 94% 29.87 in 4.0 mi Variable 3.5 mph - 0.06 in Rain Rain
10:53 AM 60.1 °F 55.9 °F 86% 29.81 in 10.0 mi ESE 3.5 mph - 0.09 in   Mostly Cloudy
11:53 AM 66.9 °F 57.9 °F 73% 29.84 in 10.0 mi Variable 4.6 mph - N/A   Clear
12:53 PM 71.1 °F 55.9 °F 59% 29.82 in 10.0 mi Calm Calm - N/A   Clear
1:53 PM 73.0 °F 52.0 °F 48% 29.82 in 10.0 mi Calm Calm - N/A   Clear
2:53 PM 73.0 °F 51.1 °F 46% 29.81 in 10.0 mi Calm Calm - N/A   Scattered Clouds
3:53 PM 75.0 °F 52.0 °F 44% 29.82 in 10.0 mi West 6.9 mph - N/A   Clear
4:53 PM 75.0 °F 52.0 °F 44% 29.82 in 10.0 mi Variable 3.5 mph - N/A   Partly Cloudy
5:53 PM 73.9 °F 48.0 °F 40% 29.82 in 10.0 mi Variable 6.9 mph 16.1 mph N/A   Partly Cloudy
6:53 PM 70.0 °F 48.0 °F 46% 29.83 in 10.0 mi West 4.6 mph - N/A   Clear
7:53 PM 59.0 °F 52.0 °F 78% 29.85 in 10.0 mi Calm Calm - N/A   Clear
8:53 PM 55.0 °F 52.0 °F 89% 29.87 in 10.0 mi Calm Calm - N/A   Clear
9:53 PM 52.0 °F 48.9 °F 89% 29.88 in 10.0 mi Calm Calm - N/A   Clear
10:53 PM 48.9 °F 48.0 °F 97% 29.89 in 10.0 mi Calm Calm - N/A   Clear
11:53 PM 46.9 °F 45.0 °F 93% 29.89 in 10.0 mi Calm Calm - N/A   Clear